Regional Weather Roundup
Issued by NWS Kansas City/Pleasant Hill, MO

Home | Current Version | Previous Version | Graphics & Text | Print | Product List | Glossary Off
Versions: 1 2 3 4 5 6 7 8 9 10 11 12 13 14 15 16 17 18 19 20 21 22 23 24 25 26 27 28

000
ASUS43 KEAX 161210
RWREAX

WEATHER ROUNDUP FOR EASTERN KANSAS AND NORTHWEST MISSOURI
NATIONAL WEATHER SERVICE KANSAS CITY/PLEASANT HILL MO
600 AM CST MON JAN 16 2017

KSZ040-057-103>105-MOZ028-029-037-043-161300-
...KANSAS CITY METROPOLITAN AREA...

CITY           SKY/WX    TMP DP  RH WIND       PRES   REMARKS
K.C. INTL      LGT RAIN  35  32  88 E10       29.94F FOG     WCI  27
6HR MIN TEMP:  33; 6HR MAX TEMP:  35; 6HR PCP:  0.37;

K.C. DOWNTOWN  LGT RAIN  34  50 100 E8        29.94F WCI  27
6HR MIN TEMP:  33; 6HR MAX TEMP:  34; 6HR PCP:  0.36;

LEES SUMMIT    LGT RAIN  35  50 100 E13       29.93F WCI  26
6HR MIN TEMP:  33; 6HR MAX TEMP:  35; 6HR PCP:  0.30;

OLATHE - IXD   LGT RAIN  37  37 100 E12       29.90F WCI  29
6HR MIN TEMP:  33; 6HR MAX TEMP:  37; 6HR PCP:  0.54;

OLATHE - OJC   LGT RAIN  36  36 100 NE10      29.90F WCI  28
6HR MIN TEMP:  32; 6HR MAX TEMP:  36; 6HR PCP:  0.51;

LAWRENCE       LGT RAIN  34  34 100 NE9       29.91F FOG     WCI  27

$$

MOZ001>008-011>017-020>025-030>033-038>040-044>046-053-054-161300-
...NORTHERN AND CENTRAL MISSOURI...

CITY           SKY/WX    TMP DP  RH WIND       PRES   REMARKS
ST. JOSEPH     LGT RAIN  33  33 100 E10       29.97F WCI  25
6HR MIN TEMP:  32; 6HR MAX TEMP:  33; 6HR PCP:  0.16;

WARRENSBURG    DRIZZLE   37  36  93 E9        29.95F WCI  31
WHITEMAN AFB   LGT RAIN  39  39 100 E7        29.94F WCI  34
6HR MIN TEMP:  35; 6HR MAX TEMP:  39; 6HR PCP:  0.25;

CLINTON        LGT RAIN  43  43 100 SE7       29.94F
SEDALIA        LGT RAIN  40  39  97 E10       29.99F FOG     WCI  33
6HR MIN TEMP:  35; 6HR MAX TEMP:  40; 6HR PCP:  0.16;

WARSAW         NOT AVBL
CHILLICOTHE      N/A     33  32  96 E6        30.04F WCI  28
6HR MIN TEMP:  32; 6HR MAX TEMP:  33; 6HR PCP:  0.29;

KIRKSVILLE     FRZ RAIN  32  32 100 E12       30.08F FOG     WCI  23
6HR MIN TEMP:  31; 6HR MAX TEMP:  32; 6HR PCP:  0.14;


$$

MOZ041-047>049-056>058-063>065-088>090-097-161300-
...EASTERN AND SOUTHERN MISSOURI...

CITY           SKY/WX    TMP DP  RH WIND       PRES   REMARKS
ST. LOUIS INTL FOG       40  38  93 SE9       30.14S VSB 1/2 WCI  34
6HR MIN TEMP:  38; 6HR MAX TEMP:  40;

SPIRIT OF STL  LGT RAIN  39  39 100 E5        30.13S FOG
COLUMBIA       LGT RAIN  38  38 100 SE13      30.05F FOG     WCI  30
JEFFERSON CITY LGT RAIN  39  38  96 E9        30.07F FOG     WCI  33
ROLLA          LGT RAIN  39  39 100 E14       30.04F FOG     WCI  31
OSAGE BEACH    LGT RAIN  45  44  97 SE6       30.03F
SPRINGFIELD    LGT RAIN  48  46  93 SE23      29.94F
BRANSON        LGT RAIN  41  41 100 E16G22    29.97F VSB<1/4 WCI  33
JOPLIN         CLOUDY    52  51  97 E17       29.85F
WEST PLAINS    FOG       44  43  96 SE8       30.08F VSB 1/4

$$

IAZ060-094-KSZ022-034>040-054-083-096-NEZ052-066-093-161300-
...KANSAS...SOUTHEAST NEBRASKA AND IOWA...

CITY           SKY/WX    TMP DP  RH WIND       PRES   REMARKS
TOPEKA         RAIN      35  32  88 NE10      29.89F FOG     WCI  27
6HR MIN TEMP:  33; 6HR MAX TEMP:  35; 6HR PCP:  0.34;

MANHATTAN      RAIN      34  32  92 NE15      29.86F WCI  24
EMPORIA        LGT RAIN  38  38 100 E13       29.81F FOG     WCI  30
CHANUTE        CLOUDY    50  49  96 SE9       29.82F
WICHITA        LGT RAIN  43  43 100 S3        29.78S FOG
OMAHA          CLOUDY    33  29  85 NE7       30.04F FOG     WCI  27
LINCOLN        FRZ RAIN  32  31  96 NE13      29.99F FOG     WCI  22
FALLS CITY     RAIN      33  32  96 NE8       29.96F FOG     WCI  26
LAMONI         FRZ RAIN  32  31  96 E9G18     30.03S FOG     WCI  24
DES MOINES     FRZ RAIN  32  30  92 E7        30.11F FOG     WCI  26

$$





USA.gov is the U.S. government's official web portal to all federal, state and local government web resources and services.